Overview Statistics Trail Chart Weather Telemetry Raw packets
 

This is the latest recevied weather packets stored in our database for station/object R8AHC-13. If no packets are shown the sender has not sent any weather packets the latest 10 day(s).

<< 1 2 3 4 5 >>
Time Temp. Humidity Pressure Rain* Wind** Luminosity Snow
1778103422 13.89° C 54% 1011 hPa - 3.13 m/s, 220° - -
1778099822 13.89° C 54% 1010 hPa - 3.13 m/s, 210° - -
1778096222 13.89° C 54% 1011 hPa - 3.13 m/s, 220° - -
1778092622 17.78° C 42% 1011 hPa - 4.92 m/s, 210° - -
1778089022 17.78° C 42% 1012 hPa - 4.02 m/s, 200° - -
1778085423 17.78° C 42% 1012 hPa - 4.02 m/s, 200° - -
1778081822 17.78° C 42% 1012 hPa - 4.02 m/s, 200° - -
1778078222 22.22° C 28% 1013 hPa - 4.92 m/s, 200° - -
1778074622 23.89° C 25% 1013 hPa - 4.92 m/s, 190° - -
1778071022 23.89° C 25% 1013 hPa - 5.81 m/s, 190° - -
1778067422 23.89° C 25% 1013 hPa - 5.81 m/s, 190° - -
1778063823 23.89° C 25% 1013 hPa - 4.92 m/s, 230° - -
1778060222 23.89° C 25% 1013 hPa - 5.81 m/s, 230° - -
1778056622 23.89° C 25% 1013 hPa - 5.81 m/s, 220° - -
1778053022 23.89° C 25% 1013 hPa - 4.92 m/s, 250° - -
1778049422 23.89° C 25% 1013 hPa - 5.81 m/s, 220° - -
1778045821 22.78° C 28% 1014 hPa - 5.81 m/s, 220° - -
1778042222 13.89° C 47% 1014 hPa - 4.02 m/s, 260° - -
1778038623 13.89° C 47% 1014 hPa - 0 m/s - -
1778035022 13.89° C 47% 1014 hPa - 0 m/s - -
1778031422 13.89° C 47% 1014 hPa - 0 m/s - -
1778027821 13.89° C 47% 1014 hPa - 1.79 m/s, 260° - -
1778024222 13.89° C 47% 1014 hPa - 0.89 m/s, 270° - -
1778020621 13.89° C 47% 1014 hPa - 0 m/s - -
1778017022 13.89° C 47% 1014 hPa - 0.89 m/s, 200° - -

* Rain since midnight (hover to see other rain measurements)
** Current wind speed in m/s (hover to see current wind gust speed)